TimeEDT,TemperatureF,Dew PointF,Humidity,Sea Level PressureIn,VisibilityMPH,Wind Direction,Wind SpeedMPH,Gust SpeedMPH,PrecipitationIn,Events,Conditions,WindDirDegrees,DateUTC
12:35 AM,78.8,73.4,83,30.17,10.0,NE,8.1,-,N/A,,Mostly Cloudy,40,2013-08-19 04:35:00
12:51 AM,77.0,73.0,88,30.17,10.0,NE,6.9,-,N/A,,Overcast,50,2013-08-19 04:51:00
12:58 AM,77.0,71.6,83,30.17,10.0,NE,4.6,-,N/A,,Overcast,50,2013-08-19 04:58:00
1:34 AM,75.2,71.6,89,30.16,10.0,Calm,Calm,-,N/A,,Mostly Cloudy,0,2013-08-19 05:34:00
1:51 AM,77.0,72.0,84,30.16,10.0,ENE,4.6,-,N/A,,Overcast,60,2013-08-19 05:51:00
2:23 AM,75.2,71.6,89,30.16,10.0,NE,4.6,-,N/A,,Overcast,50,2013-08-19 06:23:00
2:51 AM,75.9,71.1,85,30.15,10.0,NE,4.6,-,N/A,,Overcast,50,2013-08-19 06:51:00
3:51 AM,75.9,71.1,85,30.15,10.0,NE,4.6,-,N/A,,Overcast,50,2013-08-19 07:51:00
4:51 AM,75.9,71.1,85,30.14,10.0,ENE,3.5,-,N/A,,Overcast,60,2013-08-19 08:51:00
5:51 AM,75.0,71.1,87,30.14,10.0,NE,3.5,-,N/A,,Scattered Clouds,50,2013-08-19 09:51:00
6:13 AM,75.2,71.6,89,30.14,10.0,ENE,3.5,-,N/A,,Mostly Cloudy,60,2013-08-19 10:13:00
6:51 AM,75.9,72.0,87,30.14,10.0,Calm,Calm,-,N/A,,Overcast,0,2013-08-19 10:51:00
7:51 AM,78.1,72.0,81,30.15,10.0,ENE,5.8,-,N/A,,Overcast,60,2013-08-19 11:51:00
8:51 AM,75.9,71.1,85,30.15,10.0,NE,5.8,-,0.00,Rain,Light Rain,40,2013-08-19 12:51:00
9:12 AM,75.2,71.6,89,30.15,10.0,NE,3.5,-,0.01,Rain,Light Rain,50,2013-08-19 13:12:00
9:51 AM,77.0,73.0,88,30.16,10.0,East,4.6,-,0.03,Rain,Light Rain,80,2013-08-19 13:51:00
10:51 AM,77.0,72.0,84,30.16,10.0,NE,6.9,-,0.00,,Overcast,50,2013-08-19 14:51:00
11:31 AM,80.6,73.4,79,30.16,10.0,East,6.9,-,N/A,,Overcast,80,2013-08-19 15:31:00
11:51 AM,80.1,72.0,76,30.16,10.0,NE,4.6,-,N/A,,Overcast,50,2013-08-19 15:51:00
12:28 PM,78.8,71.6,78,30.15,10.0,ENE,6.9,-,N/A,,Overcast,70,2013-08-19 16:28:00
12:51 PM,80.1,71.1,74,30.15,10.0,Variable,3.5,-,N/A,,Mostly Cloudy,0,2013-08-19 16:51:00
1:23 PM,82.4,71.6,70,30.14,10.0,Variable,4.6,-,N/A,,Mostly Cloudy,0,2013-08-19 17:23:00
1:51 PM,81.0,71.1,72,30.14,10.0,NNE,8.1,-,N/A,,Overcast,20,2013-08-19 17:51:00
2:31 PM,80.6,71.6,74,30.13,10.0,Variable,6.9,-,N/A,,Mostly Cloudy,0,2013-08-19 18:31:00
2:51 PM,82.0,70.0,67,30.14,10.0,NNE,6.9,-,N/A,,Mostly Cloudy,20,2013-08-19 18:51:00
3:51 PM,80.1,71.1,74,30.12,10.0,Variable,5.8,-,N/A,,Overcast,0,2013-08-19 19:51:00
4:51 PM,79.0,70.0,74,30.11,10.0,Calm,Calm,-,N/A,,Mostly Cloudy,0,2013-08-19 20:51:00
5:51 PM,78.1,72.0,81,30.11,10.0,NE,3.5,-,0.01,Rain,Light Rain,50,2013-08-19 21:51:00
6:51 PM,77.0,70.0,79,30.10,10.0,NNE,3.5,-,0.00,,Mostly Cloudy,30,2013-08-19 22:51:00
7:51 PM,77.0,69.1,76,30.11,10.0,NNE,5.8,-,N/A,,Overcast,30,2013-08-19 23:51:00
8:51 PM,75.9,70.0,82,30.10,10.0,East,4.6,-,N/A,,Overcast,80,2013-08-20 00:51:00
9:51 PM,73.9,69.1,85,30.11,10.0,ENE,3.5,-,N/A,,Clear,60,2013-08-20 01:51:00
10:51 PM,75.0,69.1,82,30.12,10.0,ENE,3.5,-,N/A,,Mostly Cloudy,60,2013-08-20 02:51:00
11:51 PM,75.0,69.1,82,30.12,10.0,NE,4.6,-,N/A,,Overcast,40,2013-08-20 03:51:00